Regional Weather Roundup
Issued by NWS Sterling, VA

Home | Current Version | Previous Version | Text Only | Print | Product List | Glossary Off
Versions: 1 2 3 4 5 6 7 8 9 10 11 12 13 14 15 16 17 18 19 20 21 22 23 24 25 26 27 28 29 30 31 32 33 34 35 36 37 38 39 40 41 42 43 44 45 46 47 48 49 50

000
ASUS41 KLWX 240310
RWRLWX

REGIONAL WEATHER ROUNDUP
NATIONAL WEATHER SERVICE BALTIMORE MD/WASHINGTON DC
1100 PM EDT SAT MAY 23 2015

Note: "FAIR" indicates few or no clouds below 12,000 feet
with no significant weather and/or obstructions to visibility.
 TC=TEMPERATURE CELSIUS

 * =Non NWS site. Station does not report precipitation (e.g. rain,
    snow, etc.), thunder, or fog.

DCZ001-MDZ009-015-VAZ040>042-051-053>054-240400-
WASHINGTON METRO

CITY           SKY/WX    TMP DP  RH WIND       PRES   REMARKS
WASHINGTON NAT CLEAR     64  46  52 S9        30.39R
DULLES         CLEAR     60  42  51 S6        30.38R
ANDREWS AFB    CLEAR     55  46  69 S9        30.38R
FT BELVOIR     CLEAR     55  48  77 NW2       30.39R
QUANTICO       CLEAR     64  48  56 S10       30.40R
COLLEGE PARK*  CLEAR     55  45  67 CALM      30.39R
LEESBURG*      CLEAR     59  46  63 S5        30.39S
MANASSAS*        N/A    N/A N/A N/A MISG        N/A
GAITHERSBURG*  CLEAR     54  39  58 SE6       30.42S

$$

MDZ006>007-011-014-240400-
BALTIMORE METRO

CITY           SKY/WX    TMP DP  RH WIND       PRES   REMARKS
BWI AIRPORT    CLEAR     55  43  63 CALM      30.38R
MD SCIENCE CTR   N/A     62  42  47 MISG      30.39S
MARTIN STATE   CLEAR     55  46  71 CALM      30.40S
ANNAPOLIS      CLEAR     62  46  55 S7        30.39R
FORT MEADE*    CLEAR     48  45  87 CALM      30.41S

$$

MDZ012-015-019>023-240400-
MARYLAND EASTERN SHORE

CITY           SKY/WX    TMP DP  RH WIND       PRES   REMARKS
OCEAN CITY     CLEAR     57  49  74 VRB6      30.42R
SALISBURY      CLEAR     50  47  89 CALM      30.42R
BAY BRIDGE AP*   N/A    N/A N/A N/A S5        30.39F
EASTON*        CLEAR     60  43  52 CALM      30.44R

$$

MDZ017>025-240400-
SOUTHERN MARYLAND

CITY           SKY/WX    TMP DP  RH WIND       PRES   REMARKS
PATUXENT RIVER CLEAR     56  43  61 S6        30.40R
ST INIGOES     CLEAR     53  45  74 CALM      30.40R
LEONARDTOWN*   CLEAR     55  41  58 CALM      30.42S

$$

MDZ003>005-240400-
NORTH CENTRAL MARYLAND

CITY           SKY/WX    TMP DP  RH WIND       PRES   REMARKS
FREDERICK*     CLEAR     52  48  87 CALM      30.40S
HAGERSTOWN APT CLEAR     63  38  39 SE6       30.36S
WESTMINSTER*   PTCLDY    59  37  44 SE3       30.39R

$$

MDZ501>502-240400-
WESTERN MARYLAND

CITY           SKY/WX    TMP DP  RH WIND       PRES   REMARKS
OAKLAND*       CLEAR     55  36  47 W3        30.40S
CUMBERLAND*    CLEAR     57  41  54 CALM      30.40S

$$

VAZ025>031-240400-
SHENANDOAH VALLEY

CITY           SKY/WX    TMP DP  RH WIND       PRES   REMARKS
WINCHESTER*    CLEAR     59  41  51 CALM      30.37R
FRONT ROYAL*   FAIR      55  48  76 CALM      30.36S
LURAY*         FAIR      57  52  82 CALM      30.38R
NEW MARKET*    FAIR      55  49  81 CALM      30.36R
STAUNTON*      CLEAR     55  50  83 CALM      30.40R
WAYNESBORO*    FAIR      57  48  73 CALM      30.39R

$$

WVZ021-048>050-054>055-240400-
EASTERN WEST VIRGINIA PANHANDLE

CITY           SKY/WX    TMP DP  RH WIND       PRES   REMARKS
MARTINSBURG    CLEAR     55  45  68 CALM      30.37R
PETERSBURG*    CLEAR     54  45  73 CALM      30.38S

$$

VAZ036>039-050-240400-
CENTRAL FOOTHILLS

CITY           SKY/WX    TMP DP  RH WIND       PRES   REMARKS
CHARLOTTESVILL CLEAR     57  48  72 N3        30.38R
CULPEPER*      MOCLDY    52  47  84 CALM      30.39S
ORANGE*        PTCLDY    55  52  88 CALM      30.39S
GORDONSVILLE*  FAIR      54  51  89 CALM      30.38S
WARRENTON*     FAIR      53  50  89 CALM      30.38R

$$

VAZ055>057-240400-
NORTH AND CENTRAL PIEDMONT

CITY           SKY/WX    TMP DP  RH WIND       PRES   REMARKS
FREDERICKSBRG* CLEAR     62  51  67 SE3       30.38S
STAFFORD*      CLEAR     53  48  83 CALM      30.43S

$$

NCZ024-NYZ072-PAZ021-071-VAZ022-071-240400-
OTHER REGIONAL OBSERVATIONS

CITY           SKY/WX    TMP DP  RH WIND       PRES   REMARKS
NEW YORK CITY  CLEAR     58  41  53 CALM      30.38R
PHILADELPHIA   CLEAR     60  43  53 S10       30.39R
PITTSBURGH     CLEAR     60  41  49 CALM      30.34S
ROANOKE        CLEAR     65  49  56 SE5       30.40R
RICHMOND       PTCLDY    60  49  66 SE8       30.40R
RALEIGH        PTCLDY    59  51  75 CALM      30.39R

$$

ANZ530>537-240400-
MARINE OBSERVATIONS

STATION/POSITION TIME  TEMP    WIND        PRES
                       AIR SEA DIR/SP/G
                 (UTC) (F)     (DEG/KT/KT) (MB)
THOMAS PT LIGHT  0300   65 65  190/ 15/ 16 1029.6R
BALT KEY BRIDGE  0200   64     160/  9/ 11 1028.3R
LEWISETTA        0200   62 69              1029.2R
SOLOMONS ISLAND  0200      68                N/A
PINEY POINT      0200          180/  9/ 10   N/A

$$



USA.gov is the U.S. government's official web portal to all federal, state and local government web resources and services.